This is the latest recevied weather packets stored in our database for station/object KB9GXK. If no packets are shown the sender has not sent any weather packets the latest 10 day(s).
| Time | Temp. | Humidity | Pressure | Rain* | Wind** | Luminosity | Snow |
|---|---|---|---|---|---|---|---|
| 1777938865 | 23.33° C | 41% | 997.1 hPa | 0 mm | - | 41 W/m² | - |
| 1777938561 | 23.33° C | 42% | 997.1 hPa | 0 mm | - | 40 W/m² | - |
| 1777938259 | 23.33° C | 41% | 997.1 hPa | 0 mm | - | 43 W/m² | - |
| 1777937955 | 23.89° C | 40% | 997.1 hPa | 0 mm | - | 44 W/m² | - |
| 1777937651 | 23.89° C | 40% | 997.4 hPa | 0 mm | - | 58 W/m² | - |
| 1777937348 | 23.89° C | 39% | 997.6 hPa | 0 mm | - | 68 W/m² | - |
| 1777937045 | 23.89° C | 38% | 997.5 hPa | 0 mm | - | 42 W/m² | - |
| 1777936742 | 24.44° C | 36% | 997.6 hPa | 0 mm | - | 42 W/m² | - |
| 1777936438 | 25° C | 35% | 997.6 hPa | 0 mm | - | 61 W/m² | - |
| 1777936135 | 25° C | 35% | 997.6 hPa | 0 mm | - | 71 W/m² | - |
| 1777935832 | 25.56° C | 34% | 997.5 hPa | 0 mm | - | 57 W/m² | - |
| 1777935531 | 26.11° C | 33% | 997.4 hPa | 0 mm | - | 82 W/m² | - |
| 1777935227 | 26.67° C | 33% | 997.5 hPa | 0 mm | - | 163 W/m² | - |
| 1777934925 | 26.67° C | 32% | 997.7 hPa | 0 mm | - | 178 W/m² | - |
| 1777934621 | 26.67° C | 32% | 997.5 hPa | 0 mm | - | 209 W/m² | - |
| 1777934318 | 26.67° C | 33% | 997.7 hPa | 0 mm | - | 119 W/m² | - |
| 1777934013 | 26.11° C | 32% | 997.6 hPa | 0 mm | - | 102 W/m² | - |
| 1777933710 | 27.22° C | 31% | 997.6 hPa | 0 mm | - | 77 W/m² | - |
| 1777933407 | 27.78° C | 31% | 997.9 hPa | 0 mm | - | 261 W/m² | - |
| 1777933106 | 27.22° C | 30% | 997.7 hPa | 0 mm | - | 293 W/m² | - |
| 1777932802 | 27.22° C | 30% | 997.9 hPa | 0 mm | - | 297 W/m² | - |
| 1777932499 | 26.67° C | 30% | 998 hPa | 0 mm | - | 318 W/m² | - |
| 1777932196 | 27.22° C | 30% | 997.8 hPa | 0 mm | - | 117 W/m² | - |
| 1777931893 | 27.22° C | 29% | 998.1 hPa | 0 mm | - | 324 W/m² | - |
| 1777931589 | 27.78° C | 27% | 998 hPa | 0 mm | - | 328 W/m² | - |
* Rain latest hour (hover to see other rain measurements)
** Current wind speed in m/s (hover to see current wind gust speed)